Theta_e
344 342 340 339 338 336 334 333 333 334 337 339 340 340 340 341 341 343 344 344 344 344 344 344 345 345 345 345 346 347 346 346 347 347 346 344 343 343 343 343 343 343 344 343 343 343 344 344 344 346 348 350 350 350 350 350 350 350 350 351 350 350 350 349 348 347 346 346 346 346 345 342 339 336 333 331 330 332 334 336 340 342 343 343 342
346 344 343 342 340 338 335 333 332 334 336 337 337 337 337 337 338 342 343 343 343 343 342 343 345 346 346 346 347 348 348 348 348 348 347 346 344 344 343 343 343 343 343 343 343 344 344 344 344 345 348 350 350 350 350 349 348 348 349 350 349 349 349 349 348 347 346 345 345 345 344 342 340 340 340 337 334 334 336 338 341 342 342 341 341
348 348 348 346 343 339 336 334 333 333 334 335 335 336 335 335 337 340 342 342 342 342 343 344 345 346 347 348 349 350 350 349 348 347 347 347 346 345 345 344 344 344 343 343 344 344 344 344 343 344 347 349 350 350 349 347 346 347 349 350 350 349 348 348 347 347 346 345 344 345 344 342 342 343 344 341 338 336 336 338 340 340 340 340 342
349 349 350 350 347 342 338 335 334 333 333 334 334 335 335 334 336 338 340 341 341 343 344 345 346 346 347 348 349 350 350 350 350 348 346 345 345 345 345 344 344 344 344 344 345 345 345 344 344 344 346 348 349 350 348 345 345 348 349 350 349 348 347 347 347 347 346 345 345 345 344 344 344 346 345 342 339 337 337 338 339 339 340 341 342
349 348 349 350 349 345 340 337 336 334 333 333 333 334 335 335 336 339 340 341 342 344 345 347 348 348 348 348 349 349 349 350 350 349 346 344 342 343 344 345 346 346 345 344 344 346 346 346 345 345 346 347 347 348 347 345 346 348 349 348 348 348 348 348 348 347 347 347 346 346 345 345 346 347 346 342 338 337 338 338 339 339 340 341 343
350 349 348 350 350 347 343 339 338 337 335 333 333 334 335 335 337 339 341 341 342 343 346 348 349 349 350 350 351 351 350 349 349 349 349 348 346 344 345 348 349 349 348 347 345 345 346 346 347 347 347 346 345 345 346 347 348 349 349 348 348 348 348 348 348 348 347 347 346 346 346 346 347 347 346 342 340 339 340 339 340 340 341 341 342
351 350 349 348 349 348 344 341 342 341 338 335 333 334 335 336 338 339 341 342 342 343 346 349 350 350 351 352 352 352 351 350 350 350 350 350 349 347 346 349 351 351 351 350 348 346 346 346 348 350 349 347 346 346 347 348 349 349 349 349 348 348 348 348 348 348 348 347 346 346 347 347 347 347 345 343 343 344 343 341 340 340 340 341 342
351 351 350 348 348 348 345 343 343 343 342 339 337 337 337 338 338 339 340 341 341 344 347 350 351 351 352 352 352 352 351 351 351 351 350 350 350 349 349 349 350 350 350 350 350 349 348 348 348 349 349 348 347 347 347 348 349 350 349 349 349 349 348 348 348 347 347 347 347 347 348 349 348 347 345 344 345 346 345 343 341 341 341 342 343
350 351 350 349 348 348 346 344 344 344 344 342 342 341 341 341 340 339 339 339 340 343 348 351 351 352 352 352 352 352 351 351 350 351 351 351 351 350 350 351 351 349 348 349 350 350 349 348 348 349 349 349 349 348 348 349 350 351 350 350 349 348 347 347 347 347 347 347 347 348 349 349 348 348 347 346 347 347 346 344 343 343 343 343 344
350 352 352 351 350 349 347 345 344 344 344 343 343 343 343 342 342 341 340 340 340 341 345 349 351 352 352 352 352 352 352 351 351 351 351 352 352 351 350 350 350 349 347 346 347 349 349 349 350 351 351 351 351 351 350 351 351 351 350 350 349 348 346 347 347 347 347 347 346 348 348 348 348 348 347 347 347 347 346 345 343 344 344 344 344
353 354 354 354 353 352 350 347 345 344 344 343 342 343 343 344 343 343 343 342 341 341 342 345 348 350 352 352 352 352 352 352 352 351 351 351 351 351 351 351 351 350 347 345 344 345 347 349 351 352 352 352 352 352 352 352 352 352 351 350 349 347 346 346 346 346 346 346 346 347 348 348 348 348 347 346 346 346 346 345 345 345 345 345 345
354 353 353 353 353 354 353 351 349 347 345 344 344 345 347 348 347 347 346 345 344 343 343 344 346 348 350 351 352 352 351 351 350 349 349 350 350 350 351 351 351 351 349 347 344 343 344 346 349 351 352 352 352 352 351 352 352 352 351 350 349 348 347 347 346 346 346 346 346 347 347 348 348 348 347 345 345 346 346 346 346 346 346 346 345
352 353 354 352 350 350 352 352 352 352 350 349 349 349 351 351 351 350 348 348 348 347 347 347 348 348 350 351 350 350 349 349 348 347 348 350 350 350 350 350 350 350 350 349 347 344 343 344 346 348 349 351 353 352 352 352 351 351 350 350 349 348 348 347 347 347 347 347 347 347 347 347 347 346 346 345 346 346 346 346 346 347 347 346 345
348 352 354 351 348 347 349 351 353 354 354 353 352 350 350 351 351 349 348 348 348 349 349 350 350 350 351 350 350 349 348 348 348 348 349 350 350 350 350 350 349 349 350 349 348 347 345 345 345 345 347 350 352 353 352 351 350 349 348 348 348 348 348 347 347 346 346 346 346 345 345 345 345 345 345 346 346 346 346 346 347 347 347 345 344
350 351 352 351 349 349 350 351 350 350 350 350 351 350 350 350 351 350 349 348 348 349 349 350 350 350 350 350 349 349 349 349 348 348 349 350 351 351 350 349 348 348 348 348 348 348 348 348 347 346 346 349 351 352 350 349 348 347 346 347 348 348 347 347 346 345 345 344 343 343 343 344 344 345 346 346 346 345 345 346 347 346 345 345 345
352 352 351 351 350 349 349 348 347 346 347 348 349 350 350 350 350 350 349 349 348 348 348 348 349 348 348 348 349 350 349 349 348 348 348 349 350 350 350 349 349 348 348 348 347 347 348 349 349 348 348 349 349 348 348 347 347 346 346 346 346 346 346 345 344 343 342 341 341 341 342 343 343 344 346 346 346 346 346 346 346 346 345 346 347
350 349 348 348 348 347 346 347 347 347 348 348 349 350 349 349 349 350 350 350 349 349 349 348 349 348 348 349 350 350 351 350 350 349 349 349 349 349 349 349 349 349 349 348 347 347 349 350 350 349 349 348 347 346 346 346 346 346 346 346 346 345 344 343 343 343 341 341 341 341 343 344 344 345 346 346 346 347 346 346 346 345 345 345 345
348 348 347 347 346 346 347 348 348 347 347 347 347 348 350 349 350 350 351 350 350 350 351 350 350 350 350 350 350 350 351 351 351 350 350 350 350 350 349 349 349 349 349 348 348 347 348 350 351 350 349 348 348 346 345 345 346 347 347 346 346 345 344 344 344 345 343 342 342 344 345 345 346 347 347 347 347 346 345 345 344 343 343 343 343
348 348 349 349 348 348 349 349 349 349 348 348 347 348 349 350 350 349 349 349 349 349 349 350 350 350 349 349 349 350 350 350 350 350 351 351 351 350 350 349 349 349 349 349 349 348 348 349 350 350 350 350 349 349 347 346 346 346 346 345 344 344 346 346 346 346 346 345 345 346 347 347 347 347 346 346 345 344 344 343 343 343 341 338 334
346 348 348 348 347 348 349 349 349 348 346 345 346 346 346 346 347 346 345 346 346 346 348 348 348 348 348 348 348 348 349 349 349 350 350 351 351 350 349 349 349 349 349 349 349 348 348 347 347 348 348 347 346 348 348 347 347 346 346 345 343 344 346 348 348 348 348 347 347 347 348 347 346 345 344 343 343 342 342 342 341 338 333 327 323
341 342 343 343 344 345 346 345 345 344 342 341 341 341 340 341 342 343 343 344 344 344 345 346 346 347 347 347 347 347 347 347 347 348 348 348 348 348 348 348 348 349 349 349 349 349 348 347 346 347 347 344 343 345 347 347 346 346 346 346 345 344 345 347 349 349 348 349 349 348 346 343 341 341 341 340 340 340 340 339 335 331 326 323 322
336 337 338 339 340 340 339 339 338 338 338 338 338 339 339 339 340 341 342 343 343 343 344 344 344 345 344 344 344 344 344 345 345 345 345 345 345 345 345 345 345 346 346 347 348 348 348 349 348 347 347 345 345 346 346 345 346 347 347 347 346 346 347 348 349 348 348 349 348 344 340 338 338 338 339 339 340 340 339 336 331 327 326 325 322
335 335 335 335 335 335 335 335 336 337 338 338 338 339 339 339 339 341 342 343 343 343 343 343 343 343 342 342 342 342 342 343 343 343 342 342 342 342 342 342 343 343 343 343 344 345 345 346 348 348 348 347 347 347 346 345 347 348 348 348 348 348 348 348 347 348 349 348 342 336 333 334 337 338 339 340 340 338 335 332 329 328 326 323 320
332 332 332 332 332 332 332 333 334 335 337 337 337 338 338 338 338 339 339 340 340 340 340 339 339 338 338 337 338 339 339 339 339 340 340 340 340 339 339 339 339 339 339 338 339 341 342 343 343 345 346 344 344 345 347 348 349 349 349 350 349 348 348 348 347 348 347 339 329 327 331 334 337 339 340 339 337 334 332 330 329 327 323 320 318
328 329 329 330 329 330 331 332 331 332 333 333 334 335 336 336 337 337 337 337 336 336 336 336 335 334 332 332 333 333 334 333 333 334 333 334 334 334 333 333 333 333 333 333 333 334 336 339 341 342 343 342 342 343 344 346 348 349 349 348 347 347 346 343 339 338 335 327 323 327 334 337 339 340 340 337 334 332 330 328 326 323 319 317 318
323 325 326 326 326 326 328 328 327 327 327 328 330 331 332 332 331 331 333 334 334 334 334 334 335 334 332 331 331 331 331 331 331 331 331 331 330 331 331 331 331 330 330 329 329 329 328 329 330 331 334 337 338 337 338 340 343 345 346 346 345 342 337 330 325 323 321 321 327 334 337 339 340 339 337 334 332 330 329 326 322 319 316 316 317
320 321 322 323 323 323 323 323 322 322 323 324 325 327 328 327 326 324 324 328 331 331 330 330 331 333 334 333 332 332 333 333 333 332 332 331 330 331 330 330 329 328 326 326 327 327 325 321 318 316 318 321 324 326 330 334 337 338 339 340 337 331 328 327 325 324 323 325 332 338 339 339 338 336 333 331 330 329 327 324 320 316 315 314 315
319 321 321 321 322 321 320 320 321 321 321 321 321 321 319 318 318 317 318 320 325 327 327 325 324 326 329 330 330 330 329 330 330 330 329 328 326 325 323 319 317 318 317 317 319 322 322 318 313 310 309 310 312 315 319 326 330 330 331 330 326 323 327 330 329 330 333 335 337 338 337 335 333 331 330 329 328 326 326 324 319 316 314 314 314
319 320 320 320 320 320 320 321 320 320 318 316 317 316 313 309 309 311 313 316 319 322 324 324 322 322 323 323 321 319 317 317 319 320 320 319 317 315 313 309 307 307 307 307 308 311 313 312 310 308 307 309 311 312 314 321 327 328 328 328 325 322 325 327 326 329 336 338 335 333 333 331 329 328 327 326 326 325 324 322 318 315 315 315 314
317 319 319 321 322 322 322 322 322 321 318 313 310 310 309 308 310 310 310 312 315 316 318 319 318 317 316 314 312 310 309 309 309 309 310 310 308 308 307 306 306 306 306 306 306 306 306 309 312 315 317 318 319 320 321 325 330 332 332 332 329 327 327 328 330 332 334 333 331 329 328 327 326 326 326 326 325 324 322 319 317 316 316 315 315
313 314 315 319 322 323 323 323 322 320 316 310 306 306 307 308 312 312 310 310 311 312 312 312 312 311 311 310 310 310 310 309 308 308 308 307 307 307 306 306 307 307 307 308 308 309 309 312 318 323 326 328 328 328 329 331 333 334 334 333 332 331 331 331 331 331 330 328 327 326 325 325 325 325 325 324 323 322 320 318 317 317 316 316 316
313 312 312 314 317 318 318 318 316 313 310 306 306 308 309 310 311 311 312 312 313 314 314 314 313 312 310 311 312 312 312 311 310 310 309 308 309 311 311 311 311 310 310 311 311 314 317 320 322 326 329 331 333 332 332 333 334 334 333 333 332 330 329 329 327 326 325 324 324 324 324 324 324 323 323 322 321 320 319 318 317 317 317 316 316
314 313 311 311 311 311 310 310 308 307 306 305 307 311 314 313 311 312 315 316 317 318 319 318 317 314 312 313 314 313 313 313 313 313 312 311 311 312 314 317 318 316 316 316 315 318 322 324 324 325 327 330 331 331 331 331 330 329 329 329 328 327 326 326 325 324 323 324 324 324 324 323 322 322 321 320 320 319 318 318 317 317 317 316 316
313 313 312 311 310 308 308 307 306 306 306 306 308 312 316 315 313 315 318 320 320 320 321 321 320 317 315 316 316 315 314 315 314 314 314 313 312 312 314 319 321 321 321 321 319 320 323 324 323 324 325 326 327 328 327 327 326 326 326 326 325 325 324 324 324 323 323 323 323 323 322 321 321 321 320 320 319 319 318 318 317 317 317 316 316
313 312 312 311 310 310 309 308 309 309 310 309 309 312 314 314 314 315 319 321 321 321 321 321 321 318 317 317 317 316 316 316 315 314 314 314 313 312 313 316 319 321 322 323 322 323 324 324 323 323 324 324 324 324 324 324 324 324 324 323 323 323 322 322 322 322 322 322 322 321 321 320 320 320 320 319 319 318 318 317 317 317 317 316 316
313 312 312 312 312 312 312 312 312 313 313 313 312 312 313 314 314 315 317 318 319 320 320 320 319 318 317 318 318 318 318 317 315 315 314 312 312 311 311 313 316 319 321 322 323 323 324 324 324 323 323 323 323 322 323 323 323 322 322 322 322 322 321 321 321 321 321 321 321 321 320 320 320 320 319 319 318 318 318 317 316 316 315 315 314
312 312 312 313 313 313 314 314 314 314 314 314 314 313 313 314 314 315 315 316 317 318 318 318 317 317 318 318 318 318 318 317 315 315 313 312 311 311 310 311 314 317 319 320 320 321 321 321 322 322 321 321 322 321 322 322 322 322 322 322 321 321 321 321 321 321 321 320 320 320 319 319 319 319 318 318 317 317 316 315 315 314 313 312 312
316 314 312 311 312 313 314 315 315 314 314 314 314 314 314 314 314 315 316 316 316 317 318 318 318 318 318 318 318 317 317 316 315 314 313 312 311 311 310 310 312 314 316 317 318 318 318 318 318 318 318 318 318 318 318 318 319 319 319 319 319 319 318 318 318 318 317 317 317 317 317 316 316 316 316 316 315 315 314 314 313 313 312 311 310
321 319 317 314 312 311 313 314 315 315 315 314 314 315 315 315 315 315 316 316 316 316 317 318 317 317 317 317 318 317 316 315 315 313 312 311 311 310 310 310 310 311 312 313 314 315 315 315 315 315 315 315 315 315 315 315 315 315 315 315 315 315 314 314 314 313 313 313 313 312 312 312 312 312 312 312 311 311 311 311 310 309 309 308 307
322 322 321 320 317 314 312 313 313 314 315 315 315 314 314 315 315 315 316 316 316 316 317 317 317 316 317 316 316 316 315 315 314 312 311 311 311 310 310 309 309 309 309 310 310 311 311 311 310 310 310 310 310 310 310 310 310 310 310 310 311 311 311 311 311 311 311 310 310 310 309 309 309 309 308 308 308 307 307 307 306 305 305 304 303
319 320 321 321 321 319 317 316 316 315 315 315 314 314 314 314 314 314 314 314 315 316 316 316 316 315 315 315 315 314 314 313 313 311 311 310 310 310 309 309 308 308 308 308 308 308 308 308 307 307 306 306 305 305 305 306 306 306 306 306 306 306 307 307 307 307 307 307 307 307 307 307 307 306 306 306 305 305 304 303 302 301 301 301 301
316 318 318 319 320 320 320 320 319 319 318 317 315 314 314 314 313 313 313 313 314 315 316 316 315 314 314 314 314 313 313 312 312 311 310 310 310 309 309 308 308 307 307 306 306 306 306 306 306 305 304 304 303 303 303 303 303 303 303 303 303 304 304 304 304 304 304 304 304 304 304 304 304 304 303 303 302 301 300 300 300 300 300 300 300
314 315 316 316 317 317 318 319 319 319 319 319 317 315 315 314 314 313 313 313 314 315 316 316 315 315 314 314 313 313 312 311 311 311 310 309 309 309 308 308 307 307 306 306 306 306 305 305 304 304 303 302 302 301 301 301 301 301 301 301 301 302 302 302 302 302 302 302 302 302 302 301 301 301 300 300 300 299 299 299 299 300 300 300 300
313 314 315 316 316 316 317 318 318 318 318 318 317 316 316 316 316 314 314 314 315 316 316 315 315 314 314 313 313 312 312 311 311 310 309 309 309 308 308 307 306 306 305 305 305 305 304 304 303 303 302 301 301 301 300 300 299 299 299 300 300 300 300 301 300 300 300 300 300 299 299 299 299 299 298 299 299 299 299 299 299 300 300 300 301
313 314 315 315 314 314 314 315 316 317 317 317 316 316 316 316 316 315 315 315 315 315 314 314 314 314 313 313 312 311 311 311 311 310 309 309 308 308 307 306 305 305 304 304 304 304 303 303 302 302 301 300 300 300 299 298 298 298 299 299 299 299 299 299 299 298 298 298 297 297 297 297 297 297 298 298 298 299 299 299 300 300 300 301 301
312 312 312 312 312 312 312 312 313 314 315 316 316 316 316 316 315 315 314 314 314 313 313 313 312 312 312 312 311 311 311 310 310 309 309 309 308 307 306 305 304 304 304 303 303 303 302 302 301 300 300 300 299 299 298 298 298 298 298 298 298 298 298 297 297 297 296 296 296 295 295 296 296 297 297 298 298 298 299 299 299 300 300 301 301
310 311 311 311 312 311 311 312 313 314 315 315 315 315 315 315 314 314 313 313 312 312 312 311 311 311 311 311 311 310 310 309 309 309 308 307 306 305 305 304 304 303 303 303 302 302 301 301 300 299 299 299 298 297 297 297 297 297 297 297 297 297 297 296 296 295 295 295 295 295 295 296 296 297 297 297 297 298 298 299 299 300 300 301 301
310 311 311 312 312 312 312 312 312 312 313 314 314 314 313 313 313 312 312 311 310 310 310 310 310 310 310 310 310 309 309 308 308 307 306 305 305 304 304 303 303 302 302 302 301 301 300 300 299 299 298 297 296 296 296 296 296 296 296 296 296 296 295 295 294 294 294 294 294 294 295 296 296 297 297 297 297 298 298 299 299 300 300 301 301
310 311 311 311 311 311 311 311 311 311 311 312 312 312 312 312 312 311 311 311 310 310 310 310 310 310 309 309 308 308 307 307 306 305 305 304 304 303 303 302 302 301 301 300 300 300 299 299 298 297 297 296 295 295 295 295 295 295 295 295 294 294 294 293 293 293 293 293 294 295 295 296 296 296 296 296 297 298 299 299 300 300 300 301 301
310 310 311 311 311 311 311 310 310 310 310 310 310 310 310 310 310 310 310 310 310 310 309 309 309 309 308 308 307 306 306 305 305 305 304 304 303 302 302 301 301 300 300 299 299 298 298 297 297 296 295 295 294 294 294 294 294 294 293 293 293 293 293 293 292 292 293 293 294 295 295 296 296 296 296 296 297 299 299 300 300 300 300 301 301
310 310 310 310 309 309 310 309 309 309 309 309 309 309 309 309 309 309 309 309 309 309 308 308 307 307 307 306 306 305 305 304 304 304 303 303 302 302 301 301 300 300 299 298 298 297 296 296 295 295 294 294 294 293 293 293 293 293 293 292 292 292 292 292 292 292 293 294 295 295 295 296 296 296 296 297 298 299 299 300 300 300 300 301 301
Wind_Speed
21 22 22 22 22 23 23 23 24 24 24 22 21 20 19 18 17 17 16 16 15 15 15 15 15 14 14 14 14 13 13 13 13 13 13 13 12 12 11 11 12 12 11 11 11 11 12 12 11 10 11 11 11 11 10 10 9 9 8 8 7 8 8 9 11 11 7 7 8 8 10 12 12 13 14 13 13 13 13 13 14 14 16 17 18
21 20 20 21 21 22 22 23 24 25 24 23 22 21 19 18 17 17 16 15 15 15 15 15 15 15 15 14 14 13 13 13 13 14 14 13 13 13 12 12 12 12 12 11 11 11 11 12 11 11 12 12 12 12 12 11 10 9 8 8 8 8 9 9 10 12 11 9 9 10 11 12 13 14 16 16 15 14 14 14 15 16 17 18 19
21 21 21 20 20 21 22 22 24 25 25 24 23 21 20 18 17 17 17 16 16 16 15 15 15 16 15 15 14 14 14 13 13 14 14 14 14 13 13 13 12 12 12 11 11 11 12 12 12 11 12 13 12 12 12 11 10 9 8 8 8 8 9 10 10 12 13 12 11 12 12 13 14 16 17 18 17 16 15 16 17 17 18 20 20
23 23 23 21 20 21 22 22 23 25 25 25 23 22 20 19 18 17 17 17 17 16 16 15 16 16 16 15 15 14 14 14 13 14 15 15 14 14 14 14 13 12 12 11 11 12 12 13 12 12 12 14 13 13 12 12 12 11 10 9 9 9 10 11 12 12 13 14 13 13 13 15 16 17 19 18 16 16 16 17 18 18 19 20 20
25 25 24 23 22 22 22 22 23 24 25 25 24 22 21 20 19 18 18 18 17 17 16 16 16 16 16 15 15 14 14 14 14 14 15 15 15 15 15 14 13 13 12 12 12 12 12 13 13 12 13 14 14 14 13 13 13 13 12 11 11 11 12 12 13 13 14 16 15 14 14 15 17 19 19 18 17 16 17 18 18 19 19 20 20
30 27 26 25 25 24 23 23 23 23 24 24 24 23 22 21 20 19 18 18 18 18 17 17 17 17 16 14 14 14 14 15 15 15 15 15 16 16 16 15 14 13 14 14 14 14 14 13 13 13 13 14 14 14 14 14 14 15 14 14 13 13 13 14 14 15 16 16 16 14 14 15 17 19 18 17 17 18 19 19 18 19 20 20 20
33 30 28 26 26 25 24 24 23 23 23 24 24 24 23 22 22 21 20 19 19 19 18 17 17 17 16 15 15 15 15 15 15 15 15 16 17 17 17 16 15 15 15 16 16 16 15 15 14 14 14 14 14 14 14 14 15 15 15 14 13 13 14 15 15 17 17 17 15 15 15 16 18 19 18 17 18 19 21 22 20 20 20 21 22
35 33 31 29 27 26 25 24 24 23 23 23 24 24 24 23 23 23 22 22 21 21 20 18 18 18 18 17 16 16 16 16 16 16 16 16 17 18 18 18 18 18 18 18 18 17 17 17 16 15 15 15 15 15 15 14 15 15 15 14 14 15 15 16 17 18 18 17 16 15 16 17 18 18 18 18 20 20 20 21 22 22 22 21 22
36 36 35 33 29 26 25 24 24 23 22 22 22 23 23 23 23 23 23 23 22 22 21 19 18 18 19 18 18 17 17 17 17 16 16 16 17 17 18 19 20 19 20 20 20 20 19 19 18 17 16 16 16 16 16 16 16 17 16 16 16 16 16 15 16 17 17 18 17 17 17 18 18 19 20 21 21 21 19 20 21 22 23 22 21
37 36 36 35 32 28 26 24 24 23 21 21 21 21 22 22 22 22 23 23 23 22 22 21 20 20 20 19 19 19 19 18 18 18 19 20 19 19 18 19 20 20 20 21 21 21 21 20 19 18 18 17 17 17 17 17 18 18 18 17 17 17 16 16 16 16 18 20 19 19 19 19 19 19 21 22 21 20 19 20 22 22 23 23 22
35 34 34 33 31 29 27 24 23 23 22 21 20 20 21 21 22 22 23 23 23 23 22 22 22 21 21 21 20 20 21 21 22 23 23 22 22 21 20 20 20 20 21 21 21 21 22 21 20 20 19 18 18 18 19 19 19 18 17 17 16 17 17 17 17 17 19 20 20 19 19 20 19 20 21 22 22 21 20 21 22 22 22 24 23
33 32 33 31 28 26 24 21 20 22 22 21 20 19 18 20 21 21 21 22 23 23 23 23 23 22 22 22 22 22 23 22 22 23 22 20 19 20 21 22 22 21 21 21 21 21 22 23 23 22 21 19 18 18 19 19 19 18 19 19 18 18 17 17 16 17 18 18 19 19 19 20 20 21 22 23 22 21 21 21 21 21 22 23 23
32 32 32 30 26 22 20 18 18 19 20 20 19 18 18 19 20 20 20 21 21 22 23 23 23 23 23 23 24 24 23 23 23 24 23 20 19 20 22 24 23 22 22 22 22 23 23 24 24 24 22 20 19 18 18 19 19 19 19 20 19 18 18 17 17 17 18 18 19 19 19 21 22 22 22 22 22 22 21 21 21 21 22 22 21
34 32 29 27 25 21 18 18 18 18 19 19 18 19 20 21 20 20 20 21 21 22 23 24 24 24 24 24 25 25 24 23 22 23 24 23 22 23 24 25 24 24 23 22 22 23 24 25 25 25 23 22 21 20 19 19 19 18 19 19 19 19 19 18 18 18 19 19 20 20 20 21 22 22 22 22 22 22 22 21 21 21 21 20 18
33 31 28 25 23 21 19 18 18 18 18 18 18 20 21 21 20 20 21 21 21 20 21 23 23 22 21 22 24 25 23 22 23 23 25 26 26 26 27 26 24 24 24 23 23 24 25 25 25 25 24 23 23 22 21 20 18 17 18 19 20 20 20 20 20 20 21 21 22 22 22 22 22 22 22 22 21 21 21 21 21 20 19 16 15
27 26 25 24 23 22 19 17 17 15 14 14 15 17 19 20 21 22 22 22 22 22 22 23 22 22 22 23 23 23 23 23 24 24 25 27 28 29 29 28 26 25 25 25 25 25 25 26 26 25 25 25 24 23 22 21 19 17 18 20 21 22 22 22 22 22 22 22 22 22 21 22 22 22 22 22 21 21 21 20 19 18 16 14 14
22 19 17 17 18 18 18 17 17 14 11 11 12 14 16 19 22 23 24 25 24 24 24 24 24 24 25 25 24 24 23 24 25 26 26 27 28 29 30 29 29 28 27 26 26 26 26 27 28 28 28 27 27 26 25 24 22 20 20 21 22 23 24 24 23 23 23 22 21 21 21 22 22 22 21 21 21 21 19 18 17 16 15 14 14
16 14 12 11 12 14 16 17 17 16 15 14 14 17 18 19 21 23 24 25 25 26 26 25 25 26 26 26 25 25 25 26 27 28 28 29 29 30 31 31 31 30 29 27 27 27 28 29 30 30 30 30 30 29 29 29 27 25 24 23 22 24 25 25 24 23 23 21 20 20 20 21 21 21 21 20 19 18 17 15 15 14 14 15 16
10 10 11 11 12 13 13 12 11 12 14 13 14 18 20 18 18 19 18 19 20 21 22 22 23 24 25 25 24 24 25 26 27 29 30 31 31 31 32 32 31 31 30 29 29 29 29 30 30 31 31 31 31 31 32 33 33 31 30 29 27 27 26 25 23 23 21 20 20 20 20 21 20 20 19 18 16 15 14 14 14 14 15 16 17
6 7 9 9 10 10 10 11 12 12 12 11 11 14 16 16 17 17 17 17 16 15 16 17 18 19 20 21 22 22 23 24 25 26 27 29 31 31 31 31 31 31 31 31 31 32 31 31 32 33 33 32 32 33 34 35 36 35 34 33 31 29 26 24 22 20 19 19 19 19 19 19 19 18 16 15 13 13 13 13 13 14 14 14 16
7 5 4 3 2 4 4 7 8 8 8 10 9 8 9 12 14 15 16 17 15 14 14 15 16 16 17 18 20 21 21 21 22 22 23 24 25 25 25 24 24 26 29 31 32 34 34 33 33 35 35 35 35 35 35 36 37 36 34 32 32 31 29 25 20 18 18 18 18 18 18 17 16 15 13 12 11 11 12 12 12 12 13 15 17
12 11 10 8 6 5 6 5 5 5 4 4 5 4 4 6 7 8 9 10 10 10 12 12 12 13 14 14 16 17 17 17 18 17 17 18 19 19 19 19 20 21 22 23 26 28 30 32 34 35 36 37 37 35 34 34 35 34 33 32 32 30 28 23 19 17 17 18 17 17 16 15 14 13 12 11 11 11 12 12 12 13 15 18 20
12 12 12 11 11 10 10 10 9 9 8 7 6 5 4 4 4 5 5 6 6 6 7 7 8 9 9 8 8 10 11 11 12 13 13 14 14 15 14 14 16 16 16 16 18 20 21 25 29 33 34 35 36 36 34 32 33 33 32 29 27 24 21 19 18 17 17 17 16 15 14 13 14 13 12 11 11 11 12 12 12 15 18 20 21
12 12 12 11 11 10 10 10 10 9 9 9 7 5 5 4 4 4 4 5 5 4 3 3 3 3 3 2 3 5 6 7 7 8 9 9 10 10 9 8 9 10 10 10 12 14 15 17 21 25 28 28 28 30 33 33 33 31 26 22 20 19 19 19 19 19 18 17 15 14 14 14 14 13 11 11 10 10 11 11 13 16 19 20 19
9 9 9 9 8 8 8 8 8 8 8 8 7 5 5 5 4 3 3 4 5 5 5 5 5 6 6 5 4 3 4 5 5 5 6 5 5 6 5 5 6 7 7 8 8 10 12 13 15 18 20 22 20 20 24 25 25 23 20 20 20 18 18 18 17 16 16 15 14 14 15 14 13 12 11 11 10 9 10 12 14 17 18 17 16
6 6 6 6 7 7 7 7 8 8 7 7 7 5 5 5 5 4 3 3 3 4 5 6 6 6 6 6 5 5 5 6 6 6 7 7 6 6 6 8 10 10 10 10 9 10 11 11 12 13 14 15 15 14 14 14 16 18 19 21 22 19 16 14 13 11 10 11 13 14 14 14 13 12 11 10 8 8 10 12 14 15 15 14 14
6 6 6 7 7 7 7 7 8 7 7 7 6 5 4 5 5 5 5 5 4 3 4 4 4 4 4 3 3 4 5 6 7 7 7 7 8 8 9 11 13 14 15 14 14 14 14 14 14 13 13 12 12 11 10 9 12 15 18 20 21 16 11 9 9 8 9 11 14 15 14 13 12 10 8 8 7 8 10 13 15 16 14 12 10
7 6 6 7 7 7 8 8 8 8 8 8 6 6 6 6 6 5 5 5 6 5 5 5 5 4 4 4 5 6 7 8 9 10 10 10 11 12 12 13 14 15 15 15 15 16 16 16 15 13 12 11 10 9 8 7 7 10 13 15 13 9 8 7 7 8 11 14 14 14 12 11 10 8 6 6 7 9 12 15 16 16 13 11 9
7 7 6 7 7 7 7 8 8 9 10 10 8 8 9 8 6 4 4 4 4 5 6 7 7 7 7 8 9 10 11 11 11 12 12 12 13 13 13 14 14 13 12 12 13 14 15 15 14 14 12 10 9 7 5 4 4 6 7 8 6 7 9 11 11 12 14 14 11 11 10 8 6 5 5 7 9 12 14 16 16 15 12 11 10
7 7 7 7 7 7 7 8 8 9 11 12 10 10 10 8 7 5 4 3 3 3 4 5 6 7 9 10 11 11 11 10 10 10 10 10 11 10 10 11 11 10 10 10 10 11 11 11 12 13 12 11 9 6 5 5 5 5 6 6 6 8 11 13 13 13 13 10 8 7 5 4 3 5 7 9 11 14 15 16 16 14 13 12 11
8 8 8 7 7 7 7 8 9 10 11 10 9 9 8 7 7 6 5 4 3 3 4 4 5 6 7 7 8 9 10 10 10 10 9 9 8 8 8 8 9 9 9 9 8 7 8 9 10 11 11 10 8 5 3 4 6 7 8 9 10 12 14 14 13 11 9 7 6 5 3 2 4 6 8 10 13 15 16 16 15 14 14 14 14
7 8 8 8 8 8 8 8 9 10 9 7 6 5 5 5 6 6 5 5 5 5 5 5 6 6 6 6 7 8 9 11 12 12 13 12 11 11 11 10 9 9 9 8 6 5 6 7 8 9 10 9 7 3 1 4 7 9 10 12 13 14 14 12 10 8 7 6 5 3 2 4 6 8 10 12 13 14 15 15 15 14 15 15 16
6 7 7 8 8 8 8 8 7 7 5 4 3 2 3 4 5 5 5 5 6 5 6 6 7 8 8 7 7 8 9 11 12 13 14 14 13 13 13 13 11 10 9 8 6 5 5 6 7 8 8 7 6 3 3 6 8 10 11 12 12 12 10 9 7 6 4 2 1 3 4 6 8 9 11 12 14 14 14 15 15 15 15 16 17
6 7 7 6 6 6 6 6 6 5 4 3 2 1 2 3 4 3 3 4 4 5 6 6 7 8 8 8 8 9 9 10 11 12 13 13 13 13 14 14 12 10 8 8 7 6 5 5 6 6 7 6 6 5 5 6 6 6 6 6 5 5 4 3 2 2 2 3 4 5 6 7 8 10 12 13 13 14 15 15 15 16 17 18 19
7 7 7 5 4 4 4 5 5 5 5 4 2 2 3 4 4 3 3 3 4 4 5 5 6 7 7 7 8 9 9 10 12 12 13 13 13 12 11 11 10 8 7 7 6 6 5 5 5 5 5 5 4 3 3 3 2 1 1 1 2 2 2 2 3 3 4 5 6 7 7 8 10 11 13 13 14 15 15 16 17 18 19 21 22
6 6 6 5 4 4 4 4 4 5 5 5 5 4 5 5 5 5 4 5 5 5 5 6 6 7 7 7 8 8 9 10 11 12 13 14 13 11 9 8 7 7 6 5 5 5 5 4 4 4 3 2 2 2 2 2 2 2 3 3 4 4 5 5 5 6 6 7 8 9 10 12 13 14 14 15 16 17 18 19 20 21 22 24 25
6 6 6 5 5 5 5 5 5 5 5 5 6 6 7 7 7 7 7 7 7 5 5 6 6 6 8 9 9 9 10 11 12 13 14 15 13 11 9 8 7 7 6 5 5 5 5 4 4 3 2 1 1 2 2 3 4 4 5 6 6 7 8 8 9 9 10 11 12 13 14 15 15 16 17 18 19 20 21 22 23 24 25 26 27
7 7 7 7 6 6 6 7 7 7 7 6 6 7 7 8 8 9 9 9 8 7 6 6 6 7 8 9 9 10 11 11 13 14 14 14 13 11 10 9 8 7 7 6 6 6 5 5 4 3 3 3 4 4 5 6 6 7 8 9 10 11 11 12 12 13 13 14 14 15 16 16 17 18 19 20 21 21 22 23 25 26 26 27 27
9 9 9 9 9 9 9 9 9 9 9 9 8 8 8 8 9 9 10 10 9 8 7 7 8 8 9 9 10 10 10 11 12 13 13 12 11 10 10 9 9 8 8 8 7 7 7 7 7 6 6 6 6 6 7 7 8 9 9 10 11 12 13 13 13 14 14 15 15 16 17 17 18 19 20 21 22 22 23 24 25 26 27 27 27
11 11 11 11 11 12 12 12 12 12 12 11 11 11 11 11 11 11 12 12 11 10 10 10 10 9 10 11 11 11 11 11 12 12 11 10 9 9 8 9 9 9 9 9 9 9 9 9 9 9 9 10 10 10 10 10 10 10 10 11 12 13 13 14 14 15 16 16 17 18 18 19 20 21 21 22 23 24 25 25 26 26 25 24 24
10 11 11 12 12 12 13 13 14 14 14 14 14 14 14 14 14 14 14 14 14 13 13 13 12 12 12 12 12 11 11 12 12 11 10 9 8 8 8 8 9 9 9 10 10 10 10 11 11 12 13 13 13 13 13 12 12 12 12 12 12 12 13 14 14 15 16 17 18 19 20 20 21 22 22 23 24 24 24 24 23 22 21 19 19
10 10 11 11 12 12 13 14 14 15 16 17 17 16 16 16 15 15 16 16 16 16 16 15 14 13 13 12 12 12 12 12 11 10 9 9 8 8 9 9 9 9 10 10 10 11 12 12 14 15 16 16 16 16 15 14 14 14 13 13 13 12 12 13 13 14 15 16 17 19 20 20 21 22 22 23 23 22 22 21 19 18 17 16 16
12 11 11 12 12 12 13 14 14 15 16 17 16 16 16 16 16 16 16 16 16 16 16 16 15 14 13 12 12 12 12 12 11 10 9 9 9 10 10 10 11 10 10 10 11 12 13 14 15 16 17 18 18 17 16 16 15 15 14 13 12 12 12 12 13 14 15 16 17 19 20 21 21 22 22 21 21 19 18 17 15 14 14 13 13
12 12 12 13 13 13 13 13 14 14 15 15 15 15 16 16 16 15 16 16 16 16 16 15 14 13 12 12 13 13 12 12 11 10 10 10 10 11 12 12 12 12 12 12 12 13 14 15 16 18 19 19 18 18 18 17 16 14 13 12 11 11 11 12 13 14 16 17 18 19 19 19 19 19 18 17 16 14 13 13 12 12 11 11 10
11 11 11 12 12 13 13 13 13 13 13 13 14 14 15 15 15 15 15 15 15 14 14 13 12 12 11 12 12 12 11 11 11 11 11 11 12 12 13 13 14 14 14 14 15 15 16 17 18 19 20 20 19 19 18 16 14 12 11 10 10 11 12 13 15 16 16 17 18 18 17 16 15 14 13 12 11 10 10 10 10 10 9 9 8
11 11 11 11 12 12 13 13 13 13 13 13 14 15 15 15 14 14 14 13 12 12 13 13 12 12 11 11 11 11 11 11 11 11 11 12 12 13 14 14 15 15 16 16 17 17 18 19 20 20 20 19 19 18 16 13 11 10 10 10 11 12 13 15 15 16 17 18 18 17 16 14 12 11 10 9 9 9 9 9 9 9 8 8 7
12 12 12 12 12 12 12 12 12 13 13 13 14 15 15 14 14 14 14 13 12 11 11 11 12 12 11 10 11 11 11 11 11 11 11 12 12 13 14 15 15 16 17 18 18 19 20 20 21 21 20 19 18 16 13 10 10 10 10 11 11 12 13 15 16 17 18 18 17 16 14 12 10 9 8 8 9 9 9 9 9 8 8 8 7
11 11 11 11 11 11 10 11 11 11 11 11 12 13 13 14 15 15 15 13 11 10 9 9 10 10 10 11 11 11 11 11 11 11 11 12 12 13 14 15 16 17 17 18 19 20 21 21 21 21 20 19 16 12 10 9 10 11 11 12 12 13 15 16 16 17 17 17 15 13 12 10 8 7 8 8 9 9 9 9 8 8 8 8 6
9 9 9 8 8 8 7 8 9 9 9 9 9 9 9 11 13 13 13 12 12 11 11 10 10 11 11 12 12 11 10 10 10 11 12 13 14 14 15 16 16 17 18 19 19 20 21 21 20 20 18 16 13 10 9 10 11 12 13 14 14 15 15 16 17 17 16 15 13 11 9 7 7 7 7 8 8 8 8 8 8 7 6 5 3
8 7 6 6 6 6 6 6 7 7 7 8 8 7 7 8 10 11 11 11 12 13 12 12 12 12 13 13 12 11 11 10 11 12 14 14 15 15 16 17 17 18 18 19 19 19 19 19 18 17 15 13 11 9 9 10 11 12 13 13 14 14 15 16 17 17 15 14 12 9 7 6 6 7 7 7 7 6 7 7 6 5 4 4 3
8 7 7 6 6 6 6 5 4 4 4 5 6 6 6 7 9 10 10 10 11 12 12 12 12 12 12 12 11 11 12 12 13 14 14 15 16 16 17 18 18 19 19 19 18 18 18 17 16 15 13 12 11 11 11 12 13 13 13 12 13 14 15 17 16 14 13 11 10 8 6 6 6 7 7 6 5 5 5 6 5 5 4 5 6
Wind_Direction
232 234 235 234 234 234 233 234 234 234 235 237 241 245 249 253 254 254 253 251 251 253 254 254 254 253 251 250 250 249 248 249 251 254 256 258 260 260 259 260 265 270 270 266 262 260 259 260 261 258 257 259 260 259 262 266 270 269 262 261 273 289 299 306 307 307 310 317 322 327 330 335 339 337 336 339 341 341 338 332 327 323 320 320 322
233 234 235 236 236 235 234 234 233 234 236 237 240 243 247 252 254 255 255 252 251 253 254 255 255 256 255 254 254 253 252 252 252 255 259 261 262 262 261 261 264 269 271 268 264 263 263 263 262 256 252 255 260 262 264 266 266 259 254 259 267 275 285 294 300 302 305 312 321 328 331 331 333 336 338 338 337 338 337 332 326 323 322 323 324
236 237 238 239 238 236 235 234 233 235 237 238 239 241 245 249 252 255 256 256 255 255 256 256 256 256 256 256 256 256 257 256 253 255 258 261 262 262 261 261 261 263 265 266 266 264 263 262 262 257 250 252 259 264 265 259 251 247 250 257 262 266 275 283 289 295 301 306 316 326 329 328 330 333 335 334 331 330 330 327 324 324 324 325 325
238 238 239 239 239 237 235 234 234 235 237 239 241 241 243 246 250 253 255 257 258 258 258 257 255 254 255 256 257 258 258 257 255 256 256 259 261 261 261 262 261 260 260 262 265 264 261 261 262 259 253 252 256 259 258 250 241 242 247 251 255 262 268 274 281 288 293 299 310 319 323 324 327 330 330 328 325 323 322 321 321 322 323 324 325
239 239 240 239 238 237 234 234 234 235 237 239 241 242 243 245 247 250 252 254 256 258 257 255 253 253 254 255 257 257 257 257 257 258 259 260 260 259 259 259 259 260 261 262 263 260 259 260 263 263 260 257 257 256 254 249 243 244 250 256 261 266 269 272 276 280 285 294 303 311 317 320 323 327 327 324 320 319 318 319 321 321 320 321 324
241 241 242 241 239 238 235 234 234 234 236 237 239 241 242 243 244 245 247 249 252 253 252 250 249 249 249 252 256 258 259 260 260 261 263 263 261 258 253 252 255 259 261 263 263 261 259 259 261 265 265 263 261 259 257 252 249 250 256 263 267 268 270 271 273 275 281 290 298 306 313 316 320 324 323 320 318 319 320 320 321 320 320 322 325
243 242 243 241 239 237 234 233 233 233 233 233 235 238 239 241 242 242 244 245 248 248 246 245 245 246 247 248 253 258 262 264 264 265 266 266 265 261 253 250 254 259 261 261 260 260 258 257 258 262 264 263 261 260 259 256 254 256 259 263 267 269 270 271 271 274 279 286 292 298 304 309 315 321 321 318 316 319 320 319 320 321 322 324 326
246 244 243 240 237 235 233 232 231 231 232 231 233 237 239 241 242 243 244 244 244 244 242 241 243 247 248 249 253 256 260 263 265 266 268 268 268 265 260 257 260 263 263 260 258 257 256 255 257 258 257 257 258 258 256 254 255 258 260 264 271 276 277 275 272 272 276 280 284 288 294 302 309 313 314 314 314 316 318 318 320 323 324 325 326
248 246 245 242 237 234 232 231 231 232 232 232 234 237 240 242 244 246 246 246 245 243 240 239 243 248 248 249 254 257 260 263 264 267 270 273 273 271 268 265 265 267 266 262 258 255 252 251 252 253 252 251 253 254 252 252 256 261 263 268 275 279 280 277 272 272 274 276 279 283 289 296 301 304 307 311 312 314 316 317 319 322 322 322 325
250 247 245 243 241 238 235 232 231 232 233 234 235 238 240 242 244 247 248 249 248 247 244 242 243 248 250 251 255 259 263 265 265 266 268 270 273 273 272 270 268 268 268 265 261 256 252 250 249 249 250 250 253 254 252 254 259 265 267 269 273 276 276 274 273 273 273 273 277 282 286 290 295 300 304 308 309 311 313 315 316 319 320 320 325
245 244 243 242 241 240 238 235 234 234 233 236 239 241 244 245 246 247 248 248 248 247 246 245 244 246 249 252 255 259 263 265 267 267 267 268 270 271 272 272 271 270 270 268 266 261 254 250 248 249 250 251 254 255 255 257 261 266 268 267 270 273 272 272 274 275 275 276 278 282 286 290 294 298 302 304 305 308 311 314 315 318 320 321 326
243 243 244 242 241 240 240 240 241 239 237 240 244 247 250 250 249 250 249 246 245 244 244 244 244 244 245 249 254 258 261 265 268 269 269 270 273 274 273 271 270 271 272 271 270 266 259 253 251 250 251 253 255 256 257 260 262 264 264 264 267 270 269 271 275 278 279 279 281 284 288 291 293 296 299 301 303 307 310 312 314 316 318 322 325
244 244 241 237 236 239 243 244 244 244 244 247 248 250 254 254 251 251 249 245 243 245 245 244 245 246 249 254 258 260 261 264 266 267 266 267 272 275 273 271 270 270 271 270 270 270 265 258 254 252 253 254 257 257 258 259 260 261 261 263 264 265 264 268 273 276 278 279 282 285 287 289 292 295 298 300 302 305 307 309 310 312 316 319 319
239 238 234 231 231 235 239 240 240 244 249 253 253 252 256 259 256 254 252 248 247 247 249 249 249 250 254 259 262 263 264 265 266 265 263 262 265 269 270 270 270 269 270 270 270 271 269 264 258 255 252 252 254 257 257 256 256 258 261 263 262 261 262 266 270 274 277 280 283 285 286 288 291 293 295 297 299 303 305 307 309 311 314 317 315
235 232 228 226 228 230 232 238 244 246 247 249 249 249 255 261 262 262 260 257 254 252 253 256 256 256 259 262 264 265 266 267 267 266 263 261 261 263 266 267 267 267 269 270 271 272 269 264 260 256 252 250 253 255 253 252 255 260 265 265 263 262 263 266 271 275 278 281 284 285 287 288 289 291 293 294 296 300 304 307 309 313 317 318 314
226 222 220 219 224 228 230 238 250 252 251 252 252 253 257 261 264 266 266 263 260 257 257 258 261 264 265 264 265 266 266 267 268 268 266 264 262 262 263 265 264 265 267 269 271 270 265 260 259 257 253 252 254 254 250 249 251 255 260 263 264 264 266 269 273 276 279 281 282 284 286 286 288 290 291 294 296 299 304 307 311 316 318 316 311
213 212 215 215 220 225 228 236 244 249 255 262 266 266 265 264 265 265 264 263 261 259 258 259 262 266 266 263 263 266 267 267 267 266 265 264 264 263 262 263 263 263 265 267 269 268 263 259 258 257 254 253 254 253 248 247 248 249 251 255 261 265 267 270 275 279 279 279 279 280 282 284 286 288 290 293 296 299 303 308 310 311 310 307 306
215 218 221 216 214 215 219 228 237 243 249 255 262 263 262 262 263 261 260 262 263 262 262 263 263 264 264 263 263 265 266 265 266 266 265 263 263 262 261 260 260 261 261 262 263 263 262 259 259 259 258 258 259 257 252 248 247 247 246 246 252 261 266 268 274 278 278 276 276 277 281 284 286 288 289 291 293 295 299 303 303 304 306 307 308
214 222 220 212 210 207 210 222 237 252 260 260 259 258 260 265 268 267 268 271 272 271 270 270 269 267 267 267 266 265 264 265 266 267 266 265 263 262 261 260 259 259 259 259 258 258 259 259 261 262 262 263 264 263 257 252 249 248 249 249 249 254 261 265 270 274 274 272 275 278 280 282 283 285 287 287 288 291 294 297 299 303 307 309 310
187 210 214 215 222 226 234 246 254 266 277 280 272 263 265 275 282 284 282 281 281 279 276 274 273 270 269 268 267 265 265 267 268 269 269 268 267 265 262 260 260 260 260 259 259 258 257 258 261 262 263 264 266 266 262 256 250 247 248 249 247 248 257 264 265 267 268 267 270 273 275 277 278 278 278 277 279 283 289 294 299 302 307 312 316
97 104 122 140 214 251 258 261 267 278 286 291 293 286 281 286 292 293 287 283 283 282 278 275 271 268 266 266 265 263 263 264 266 269 270 269 269 268 266 266 266 265 263 262 261 260 258 257 256 258 260 262 262 263 262 257 252 248 247 248 247 248 256 261 260 260 263 262 262 264 266 267 267 265 262 263 269 278 287 293 298 302 309 318 322
70 68 68 72 69 52 48 48 35 29 15 345 344 345 326 311 309 304 292 287 287 283 281 280 275 270 269 266 263 261 260 261 264 268 271 272 274 278 281 282 280 276 273 269 266 264 261 259 257 257 257 257 255 255 255 252 249 248 247 246 245 246 249 254 257 258 259 256 256 257 257 255 252 248 248 256 267 278 287 293 297 305 315 321 322
68 64 58 57 57 52 51 53 52 52 54 49 43 36 25 16 359 335 310 298 297 287 280 277 271 268 266 259 256 260 264 266 265 265 270 277 284 292 295 292 287 285 287 284 277 274 270 264 260 255 250 250 247 243 245 250 249 246 245 243 242 243 246 252 257 255 253 251 250 248 243 239 238 238 243 256 269 280 289 294 302 313 321 323 320
60 61 60 57 56 55 55 55 55 58 59 57 57 57 54 50 32 7 345 332 333 334 326 320 312 306 306 301 291 286 285 286 281 277 281 289 298 308 314 310 300 297 299 296 287 281 274 268 264 257 255 260 253 234 232 238 239 239 244 246 245 246 249 251 250 247 245 243 240 234 229 227 230 235 246 258 269 281 293 305 316 323 325 322 316
51 51 52 54 57 57 54 52 53 56 56 53 52 56 59 57 47 39 36 24 15 17 25 30 32 30 25 21 15 5 359 1 359 347 339 335 332 336 340 338 332 321 309 301 294 287 279 273 272 267 268 278 274 246 233 233 230 232 244 251 248 244 243 243 243 240 237 233 226 223 221 222 228 237 247 258 270 287 307 320 326 327 324 318 310
50 53 52 54 60 59 54 52 49 46 43 39 37 41 48 45 34 25 25 27 29 35 40 42 39 34 31 32 33 34 26 16 9 360 354 353 352 350 346 338 334 329 321 314 308 306 302 295 292 289 285 287 288 280 273 262 247 245 251 251 245 238 233 237 238 233 229 228 224 221 220 221 228 235 244 257 273 296 315 324 328 326 321 312 303
47 55 56 53 53 53 47 44 39 34 28 23 18 15 10 3 358 355 350 344 344 359 20 32 28 18 16 14 7 355 343 336 334 330 327 326 323 320 321 323 322 320 319 316 312 311 312 311 309 307 304 301 301 304 307 289 262 256 257 253 246 236 224 225 228 220 221 224 220 218 219 223 230 238 250 268 287 306 318 326 330 326 320 313 304
41 42 40 36 33 31 28 27 27 24 20 16 11 6 358 348 338 330 324 320 320 324 334 342 342 339 334 329 324 318 313 309 307 305 304 306 308 308 310 314 316 313 311 310 308 306 306 309 311 309 304 301 299 301 309 308 281 264 257 253 245 219 190 201 216 215 214 214 212 216 225 233 241 252 267 289 308 318 324 331 332 327 321 321 320
36 31 26 18 12 10 10 12 15 16 12 9 6 1 357 355 350 338 320 309 308 312 317 321 322 319 316 315 313 310 307 304 301 300 301 303 304 305 307 312 317 318 316 313 310 306 305 308 314 316 314 313 308 294 281 273 263 253 246 241 226 193 196 217 225 214 205 206 214 225 234 240 250 268 290 306 316 324 330 333 332 327 325 328 327
19 14 12 9 7 6 4 2 2 1 359 357 356 355 358 4 9 8 358 339 324 320 319 318 320 320 319 320 320 321 323 325 323 320 319 317 315 315 316 323 332 338 340 339 333 323 318 322 330 335 334 331 325 303 261 230 224 223 216 207 195 186 192 204 206 198 195 200 209 215 219 232 263 289 304 312 320 327 331 331 329 327 327 329 326
0 355 352 352 353 353 348 343 339 339 343 347 351 357 5 10 11 12 14 14 8 358 351 348 348 345 340 339 343 348 353 357 359 360 0 1 3 6 3 0 2 3 3 2 356 345 344 351 355 357 352 342 332 311 254 217 200 190 181 176 175 175 178 183 185 184 185 186 183 182 196 254 287 306 316 321 326 329 328 327 325 324 323 324 323
348 341 335 331 330 329 325 323 326 328 331 338 349 360 6 6 5 9 15 20 25 26 25 22 15 10 9 10 14 18 18 19 19 19 19 23 28 31 29 23 18 17 18 16 13 14 19 20 18 19 15 5 355 348 221 185 175 169 165 164 164 166 168 170 168 164 164 167 170 188 259 300 314 324 326 326 325 324 321 319 317 315 314 316 317
334 334 332 328 326 321 315 317 325 327 326 330 341 357 0 353 354 2 7 15 20 20 20 18 13 11 15 22 29 32 32 29 26 23 21 22 24 24 25 23 20 22 26 27 30 40 42 38 39 42 42 41 43 60 119 147 152 155 159 161 161 161 165 168 167 167 175 190 264 306 317 322 323 322 321 318 316 313 311 309 306 305 307 309 310
326 328 333 334 327 316 310 315 327 331 332 334 325 295 306 323 334 342 345 354 359 358 358 1 3 4 9 16 23 26 26 23 20 17 17 16 14 14 16 14 12 16 22 25 33 46 51 53 60 63 63 70 81 95 115 129 139 149 159 165 168 173 181 187 194 238 286 308 316 317 317 315 311 310 308 305 303 301 301 300 299 301 303 305 307
324 322 326 328 320 306 298 301 312 320 324 329 323 289 285 300 313 315 305 308 323 331 335 340 344 349 355 5 14 16 14 11 8 8 9 7 4 3 4 1 0 6 10 15 30 46 53 59 69 78 82 89 100 113 126 139 156 182 230 289 301 303 307 309 306 306 307 307 307 306 304 301 300 300 297 294 293 294 294 295 297 299 301 303 304
310 311 314 314 309 304 291 280 286 297 304 311 311 299 290 295 303 302 295 296 303 311 320 326 329 331 335 344 354 358 357 358 359 1 3 4 3 3 1 359 3 8 9 12 26 39 46 54 63 71 78 93 122 151 171 196 232 270 294 306 311 310 308 306 303 302 301 299 297 296 295 295 294 291 288 287 287 288 289 292 295 296 297 298 299
290 289 291 291 293 298 295 284 277 274 279 291 299 299 296 293 294 295 295 295 298 303 311 316 316 316 319 326 335 340 341 344 348 353 359 2 5 8 10 12 13 9 5 10 19 21 24 31 34 25 10 333 285 266 264 269 275 281 286 290 292 293 294 294 293 291 289 288 288 288 287 287 286 284 283 282 283 285 288 290 291 292 293 295 296
292 289 283 276 273 278 287 289 284 274 269 270 280 290 294 292 292 294 295 295 297 299 300 302 302 301 302 309 318 325 329 334 340 346 353 359 2 6 12 18 18 10 1 358 356 354 356 359 356 345 328 312 302 293 286 283 282 281 281 282 283 284 284 284 284 284 284 283 282 282 281 280 279 278 278 278 280 282 285 286 288 290 291 293 296
288 290 289 282 273 269 270 275 277 275 272 269 271 279 285 285 286 288 289 291 293 294 293 293 293 292 293 298 305 310 315 322 330 337 347 357 3 5 8 10 10 7 2 356 349 344 341 339 335 330 322 314 309 305 300 295 290 286 282 280 280 281 282 283 284 286 285 284 283 282 281 280 279 279 280 281 283 284 286 287 288 290 292 294 298
282 280 283 284 282 278 274 272 272 272 271 271 272 274 275 275 277 279 281 284 287 289 289 289 290 290 291 294 296 299 305 314 324 332 343 354 2 6 6 3 1 358 356 352 349 345 340 336 334 332 328 323 319 316 312 309 304 300 295 291 288 287 287 287 287 287 287 287 287 286 284 284 284 284 285 286 287 289 290 291 291 293 295 298 301
284 275 271 272 275 278 281 282 282 282 280 278 276 274 274 274 277 278 279 281 283 283 283 283 285 288 289 289 290 294 301 311 320 328 337 346 353 357 358 357 354 350 346 344 342 340 339 337 336 334 333 331 328 325 321 317 313 310 306 302 299 296 294 293 291 290 289 288 287 286 286 286 286 287 288 289 291 292 294 296 297 299 301 303 305
278 273 268 265 264 267 273 277 280 282 283 282 280 278 276 276 277 277 279 280 281 281 280 280 282 284 284 284 286 292 300 308 315 322 330 337 342 344 346 347 347 345 341 337 335 333 332 332 332 333 333 333 331 328 325 321 318 315 312 309 306 303 299 296 293 291 289 288 287 288 288 290 292 294 296 297 298 300 301 302 303 305 307 308 309
277 275 273 269 265 265 267 269 272 275 277 279 280 279 277 277 278 279 280 281 280 279 279 279 279 280 280 281 286 293 300 307 312 318 325 329 331 334 336 337 336 334 332 329 327 326 326 327 328 329 330 330 329 327 325 322 319 317 314 310 306 302 298 295 293 291 290 289 290 291 293 296 298 299 300 300 301 302 303 303 304 305 305 306 305
284 280 276 273 270 269 269 269 271 272 274 276 276 274 275 277 278 278 280 281 280 278 277 275 273 273 275 279 286 293 298 304 310 316 320 322 324 327 328 328 327 327 325 324 322 322 323 324 325 326 327 327 326 325 324 323 321 319 316 311 306 303 300 297 296 295 295 296 297 298 298 299 297 296 296 296 297 297 298 299 299 300 300 301 301
285 281 278 278 277 278 279 278 276 277 279 280 278 277 280 282 281 278 275 273 271 269 268 266 266 271 276 281 285 289 292 298 304 309 312 315 318 320 321 322 322 321 320 319 320 320 321 322 323 324 325 324 323 323 323 322 320 318 314 309 305 302 299 299 301 303 304 305 306 306 305 303 299 295 294 293 292 295 297 297 298 301 301 300 301
284 281 279 278 279 279 279 278 278 281 284 285 286 285 282 277 269 264 261 260 262 267 270 270 272 278 282 282 283 286 289 292 296 300 304 308 312 315 317 318 318 317 316 316 315 316 319 321 322 323 323 321 321 322 321 319 315 312 308 302 300 300 302 305 309 311 312 312 313 313 313 311 305 299 297 296 299 303 305 305 306 306 304 303 307
285 283 282 281 281 280 277 276 279 285 289 294 296 292 281 268 259 257 259 262 268 274 278 280 281 282 281 279 279 282 285 286 290 295 301 305 309 311 311 312 312 312 312 312 312 314 317 319 320 321 320 320 321 322 318 310 304 302 299 299 300 301 305 308 310 311 312 314 317 319 318 315 309 302 300 303 308 309 311 312 312 309 306 307 309
288 287 285 285 285 283 280 279 282 286 290 296 298 290 279 272 272 275 278 280 280 275 271 271 271 270 270 272 275 278 280 282 286 292 297 301 304 305 305 307 308 308 309 310 311 313 316 317 317 317 318 319 321 319 309 298 295 295 295 295 296 298 302 305 307 309 311 315 320 321 318 314 309 305 303 308 312 314 315 316 312 307 308 309 310
294 292 292 291 291 290 290 290 291 292 296 300 299 290 277 272 273 276 282 289 288 282 275 268 263 264 269 273 274 273 275 279 286 293 296 298 300 301 302 304 305 305 306 308 310 312 314 314 314 315 317 318 317 309 297 290 289 289 289 291 293 297 302 305 306 308 313 319 323 322 317 312 307 305 308 315 318 319 319 317 312 308 307 303 296
297 294 292 293 297 306 313 311 307 304 304 306 307 307 298 288 285 286 288 287 284 282 280 274 270 272 278 279 278 277 279 284 290 294 296 297 299 300 302 303 304 305 307 309 309 310 310 311 311 314 314 311 305 299 293 289 288 289 291 294 297 299 301 303 305 310 317 322 323 319 315 313 313 314 318 323 324 323 323 321 318 313 303 285 271
299 298 296 295 302 314 321 318 311 306 305 307 311 313 310 305 302 300 297 291 285 283 281 278 276 278 281 282 281 282 287 290 292 293 295 296 298 299 300 301 302 304 305 306 306 308 308 307 307 307 303 296 293 292 288 286 288 292 294 296 298 300 301 304 308 314 320 321 319 317 316 317 319 322 324 324 322 325 331 335 333 326 308 287 279